DW5444 Weather Reports


time (UTC)temp
C
wind
direction
speed
KPH
gust
KPH
rain 1hr
cm
rain 24hr
cm
rain mn
cm
humidity
%
barometer
mb
20260903200051 15 121 6.4 16.1 0.00 0.86 0.20 49 1009.8
20260903194539 15 159 6.4 11.3 0.00 0.86 0.20 51 1009.5
20260903193037 15 234 6.4 14.5 0.00 0.86 0.20 51 1009.6
20260903191538 14 240 1.6 9.7 0.00 0.86 0.20 52 1009.6
20260903190034 14 236 8.0 16.1 0.00 0.86 0.20 53 1009.8
20260903184529 13 281 6.4 14.5 0.00 0.86 0.20 56 1009.9
20260903183030 13 285 6.4 16.1 0.00 0.86 0.20 55 1010.0
20260903181525 13 270 8.0 16.1 0.00 0.86 0.20 57 1010.2
20260903180027 13 238 9.7 17.7 0.00 0.86 0.20 58 1010.2
20260903174530 13 256 11.3 20.9 0.00 0.86 0.20 58 1010.1
20260903173022 13 201 8.0 12.9 0.00 0.86 0.20 63 1010.1
20260903171521 13 198 8.0 16.1 0.00 0.86 0.20 65 1010.2
20260903170018 13 213 6.4 11.3 0.00 0.86 0.20 67 1010.1
20260903164515 12 206 4.8 11.3 0.00 0.86 0.20 69 1010.2
20260903163013 12 185 4.8 9.7 0.00 0.86 0.20 69 1010.3
20260903161511 11 133 3.2 8.0 0.00 0.86 0.20 69 1010.1
20260903160007 11 145 4.8 8.0 0.00 0.86 0.20 69 1010.1
20260903154505 11 121 4.8 11.3 0.00 0.86 0.20 70 1010.3
20260903153003 10 111 4.8 11.3 0.00 0.86 0.20 76 1010.4
20260903151502 10 160 4.8 11.3 0.00 0.86 0.20 75 1010.3
20260903150002 9 136 4.8 12.9 0.00 0.86 0.20 77 1010.3
20260903144606 9 88 3.2 9.7 0.00 0.86 0.20 78 1010.3
20260903143110 8 146 4.8 11.3 0.00 0.86 0.20 79 1010.2
20260903141605 8 85 4.8 8.0 0.00 0.86 0.20 83 1010.0
20260903140058 8 111 3.2 8.0 0.00 0.86 0.20 81 1010.0
20260903134558 -17 0.0 0.0 0.00 0.86 0.20 1009.8
20260903133049 -17 0.0 0.0 0.00 0.86 0.20 1009.7
20260903131546 -17 0.0 0.0 0.00 0.86 0.20 1009.6
20260903130040 -17 0.0 0.0 0.00 0.86 0.20 1009.6
20260903124542 -17 0.0 0.0 0.00 0.86 0.20 1009.6
20260903123037 -17 0.0 0.0 0.00 0.86 0.20 1009.5
20260903121526 -17 0.0 0.0 0.00 0.86 0.20 1009.6
20260903120023 -17 0.0 0.0 0.00 0.86 0.20 1009.4
20260903114518 -17 0.0 0.0 0.00 0.86 0.20 1009.4
20260903113014 -17 0.0 0.0 0.00 0.86 0.20 1009.4
20260903111509 -17 0.0 0.0 0.00 0.86 0.20 1009.3
20260903110007 -17 0.0 0.0 0.00 0.86 0.20 1009.4
20260903104503 9 241 3.2 11.3 0.00 0.86 0.20 87 1009.4
20260903103103 9 247 6.4 16.1 0.00 0.86 0.20 87 1009.3
20260903101607 10 211 4.8 11.3 0.00 0.86 0.20 89 1009.1
20260903100055 10 236 8.0 17.7 0.00 0.86 0.20 90 1009.0
20260903094556 10 229 4.8 9.7 0.00 0.86 0.20 92 1009.0
20260903093106 10 225 6.4 14.5 0.03 0.86 0.20 89 1008.7
20260903091550 10 146 3.2 8.0 0.03 0.86 0.20 90 1008.5
20260903090054 10 108 1.6 4.8 0.10 0.86 0.20 90 1008.5
20260903084548 10 124 1.6 4.8 0.15 0.86 0.20 90 1008.7
20260903083045 10 149 1.6 3.2 0.15 0.84 0.18 90 1008.7
20260903081544 10 146 1.6 4.8 0.15 0.81 0.15 90 1008.6
20260903080041 10 220 0.0 3.2 0.10 0.76 0.10 90 1008.4
20260903074540 10 208 1.6 3.2 0.05 0.71 0.05 90 1008.5
20260903073040 10 213 1.6 3.2 0.03 0.69 0.03 89 1008.3
20260903071535 10 214 1.6 8.0 0.00 0.66 0.00 87 1008.1
20260903070032 10 222 1.6 8.0 0.00 0.66 0.00 86 1007.9
20260903064531 10 208 1.6 8.0 0.00 0.66 0.66 85 1007.8
20260903063103 10 267 9.7 14.5 0.03 0.66 0.66 85 1007.7
20260903061530 10 95 4.8 11.3 0.05 0.66 0.66 84 1007.7
20260903060030 10 95 3.2 9.7 0.08 0.66 0.66 86 1007.6
20260903054529 10 132 4.8 9.7 0.13 0.66 0.66 87 1007.8
20260903053028 10 104 3.2 12.9 0.13 0.64 0.64 88 1007.8
20260903051528 10 90 6.4 11.3 0.10 0.61 0.61 87 1008.0
20260903050027 10 194 4.8 11.3 0.10 0.58 0.58 88 1008.0
20260903044526 10 87 6.4 12.9 0.18 0.53 0.53 87 1008.1
20260903043027 10 132 6.4 12.9 0.18 0.51 0.51 86 1008.0
20260903041525 11 130 4.8 14.5 0.20 0.51 0.51 86 1008.0
20260903040025 11 194 6.4 17.7 0.25 0.48 0.48 88 1008.1
20260903034528 11 247 9.7 16.1 0.15 0.36 0.36 90 1007.8
20260903033021 11 180 1.6 6.4 0.15 0.33 0.33 87 1007.5
20260903031519 12 217 3.2 9.7 0.13 0.30 0.30 85 1007.4
20260903030019 12 112 8.0 16.1 0.08 0.23 0.23 84 1007.2
20260903024518 12 122 4.8 12.9 0.05 0.20 0.20 84 1007.2
20260903023019 12 87 6.4 12.9 0.05 0.18 0.18 84 1007.1
20260903021519 12 123 8.0 20.9 0.08 0.18 0.18 84 1007.2
20260903020016 12 69 6.4 19.3 0.05 0.15 0.15 84 1007.1
20260903014518 12 135 9.7 17.7 0.08 0.15 0.15 84 1007.1
20260903013015 12 71 8.0 20.9 0.08 0.13 0.13 84 1007.1
20260903011514 12 104 8.0 20.9 0.08 0.10 0.10 82 1007.1
20260903010016 12 121 12.9 22.5 0.08 0.10 0.10 81 1007.0
20260903004514 12 116 11.3 22.5 0.08 0.08 0.08 80 1007.2
20260903003012 12 138 11.3 24.1 0.05 0.05 0.05 80 1007.1
20260903001511 12 135 11.3 22.5 0.03 0.03 0.03 79 1007.1
20260903000017 13 137 9.7 25.7 0.03 0.03 0.03 77 1006.8
20260902234515 13 146 14.5 24.1 0.00 0.00 0.00 73 1006.9
20260902233010 13 177 9.7 22.5 0.00 0.00 0.00 71 1006.8
20260902231524 14 258 8.0 24.1 0.00 0.00 0.00 69 1006.8
20260902230008 15 236 9.7 17.7 0.00 0.00 0.00 67 1006.7
20260902224507 15 156 9.7 22.5 0.00 0.00 0.00 62 1006.5
20260902223007 15 132 9.7 24.1 0.00 0.00 0.00 59 1006.4
20260902221509 16 147 14.5 24.1 0.00 0.00 0.00 54 1006.5
20260902220008 17 202 12.9 25.7 0.00 0.00 0.00 47 1006.5
20260902214505 17 226 9.7 27.4 0.00 0.00 0.00 47 1006.4
20260902213005 18 241 12.9 25.7 0.00 0.00 0.00 41 1006.3
20260902211507 19 222 14.5 29.0 0.00 0.00 0.00 39 1006.1
20260902210004 19 225 12.9 24.1 0.00 0.00 0.00 41 1005.7
20260902204502 20 132 8.0 17.7 0.00 0.00 0.00 35 1005.1
20260902203002 21 234 11.3 29.0 0.00 0.00 0.00 35 1005.1
20260902201600 22 167 12.9 30.6 0.00 0.00 0.00 34 1005.2